Home > Weather > Wolfsberg > Past weeks

Flag for Austria Past Weather in Wolfsberg, Carinthia, Austria — Yesterday and Last 2 Weeks

Now
75 °F

Partly sunny.


Feels Like: 78 °F
Forecast: 57 / 82 °F
Wind: 9 mph from Northeast

Location: Zeltweg

Current Time: May 27, 2016 at 6:17:05 PM

Latest Report: May 27, 2016 at 5:50 PM


Visibility: 19 mi

Pressure: 29.98 "Hg

Humidity: 50%

Dew Point: 55 °F

Location of WolfsbergLocation

Past Weather in Wolfsberg — Graph

°F

Wolfsberg Temperature Yesterday

Maximum temperature yesterday: 75 °F (at 2:20 PM)
Minimum temperature yesterday: 45 °F (at 5:50 AM)
Average temperature yesterday: 65 °F

High & Low Weather Summary for the Past Weeks

 TemperatureHumidityPressure
High79 °F (May 22, 2:20 PM)100% (May 13, 7:50 PM)30.21 "Hg (May 13, 7:50 PM)
Low34 °F (May 16, 5:50 AM)23% (May 21, 3:50 PM)29.39 "Hg (May 13, 5:50 AM)
Average58 °F60%29.90 "Hg
* Reported May 12 4:20 PM — May 27 4:50 PM, Wolfsberg, Weather by CustomWeather, © 2016

Note: Actual official high and low records may vary slightly from our data, if they occured in-between our weather recording intervals... More about our weather records

Advertising

Wolfsberg Weather History for the Previous 24 Hours

Scroll right to see more
 ConditionsComfort  
Time TempWeatherWind HumidityBarometerVisibility
4:50 PM
Fri, May 27
79 °FBroken clouds.9 mph48%29.98 "Hg19 mi
4:20 PM79 °FBroken clouds.7 mph45%29.98 "Hg19 mi
3:50 PM79 °FBroken clouds.6 mph45%29.98 "Hg19 mi
3:20 PM79 °FBroken clouds.9 mph39%29.98 "Hg19 mi
2:50 PM79 °FBroken clouds.6 mph37%29.98 "Hg22 mi
2:20 PM79 °FBroken clouds.3 mph37%29.98 "Hg25 mi
1:50 PM79 °FPartly sunny.3 mph37%29.98 "Hg25 mi
1:20 PM77 °FPartly sunny.2 mph39%30.01 "Hg25 mi
12:50 PM75 °FPartly sunny.5 mph39%30.01 "Hg25 mi
12:20 PM75 °FPartly sunny.2 mph44%30.01 "Hg25 mi
11:50 AM73 °FPartly sunny.3 mph44%30.04 "Hg25 mi
11:20 AM72 °FPartly sunny.5 mph44%30.04 "Hg25 mi
10:50 AM72 °FPartly sunny.1 mph57%30.04 "Hg25 mi
10:20 AM68 °FPartly sunny.1 mph56%30.04 "Hg25 mi
9:50 AM64 °FPartly sunny.2 mph68%30.07 "Hg25 mi
9:20 AM63 °FPartly sunny.1 mph68%30.07 "Hg25 mi
8:50 AM61 °FPartly sunny.3 mph68%30.07 "Hg25 mi
8:20 AM57 °FPartly sunny.2 mph82%30.07 "Hg19 mi
7:50 AM57 °FPartly sunny.1 mph77%30.07 "Hg19 mi
7:20 AM55 °FPartly sunny.1 mph82%30.07 "Hg19 mi
6:50 AM54 °FPartly sunny.2 mph88%30.07 "Hg19 mi
5:50 AM52 °FPartly cloudy.1 mph88%30.07 "Hg19 mi
10:50 PM
Thu, May 26
59 °FPassing clouds.3 mph68%30.07 "Hg19 mi
9:50 PM64 °FPassing clouds.6 mph56%30.04 "Hg19 mi
8:50 PM66 °FScattered clouds.6 mph52%30.04 "Hg19 mi
7:50 PM70 °FPassing clouds.8 mph43%30.01 "Hg19 mi
7:20 PM70 °FScattered clouds.8 mph43%30.01 "Hg19 mi
6:50 PM72 °FScattered clouds.7 mph41%30.01 "Hg25 mi
6:20 PM72 °FScattered clouds.7 mph41%30.01 "Hg31 mi
Weather by CustomWeather, © 2016

See weather overviewHow to use our weather pages